TimeCST,TemperatureF,Dew PointF,Humidity,Sea Level PressureIn,VisibilityMPH,Wind Direction,Wind SpeedMPH,Gust SpeedMPH,PrecipitationIn,Events,Conditions,WindDirDegrees,DateUTC
12:56 AM,46.4,30.2,53,30.25,10.0,SE,9.2,-,N/A,,Mostly Cloudy,130,2013-03-07 06:56:00
1:56 AM,44.1,30.0,58,30.26,10.0,SE,5.8,-,N/A,,Scattered Clouds,130,2013-03-07 07:56:00
2:56 AM,42.1,30.9,65,30.25,10.0,SE,4.6,-,N/A,,Partly Cloudy,130,2013-03-07 08:56:00
3:56 AM,39.9,30.0,68,30.25,10.0,SE,4.6,-,N/A,,Scattered Clouds,130,2013-03-07 09:56:00
4:56 AM,39.9,30.0,68,30.28,10.0,Calm,Calm,-,N/A,,Partly Cloudy,0,2013-03-07 10:56:00
5:56 AM,37.9,30.0,73,30.29,10.0,SE,3.5,-,N/A,,Scattered Clouds,130,2013-03-07 11:56:00
6:56 AM,39.0,30.9,73,30.30,10.0,ESE,4.6,-,N/A,,Scattered Clouds,120,2013-03-07 12:56:00
7:56 AM,43.0,30.9,62,30.34,10.0,ESE,8.1,-,N/A,,Mostly Cloudy,120,2013-03-07 13:56:00
8:56 AM,46.9,30.0,52,30.35,10.0,SE,9.2,-,N/A,,Mostly Cloudy,130,2013-03-07 14:56:00
9:56 AM,50.0,30.9,48,30.35,10.0,ESE,8.1,-,N/A,,Mostly Cloudy,110,2013-03-07 15:56:00
10:56 AM,53.1,30.0,41,30.34,10.0,SE,8.1,-,N/A,,Mostly Cloudy,140,2013-03-07 16:56:00
11:56 AM,55.9,30.0,37,30.32,10.0,SE,6.9,-,N/A,,Clear,130,2013-03-07 17:56:00
12:56 PM,60.1,30.9,33,30.28,10.0,SE,6.9,-,N/A,,Mostly Cloudy,130,2013-03-07 18:56:00
1:56 PM,62.1,30.0,30,30.25,10.0,SE,6.9,-,N/A,,Mostly Cloudy,140,2013-03-07 19:56:00
2:56 PM,63.0,28.9,28,30.23,10.0,ESE,8.1,-,N/A,,Scattered Clouds,110,2013-03-07 20:56:00
3:56 PM,64.0,28.0,26,30.21,10.0,SSE,6.9,-,N/A,,Scattered Clouds,160,2013-03-07 21:56:00
4:56 PM,63.0,25.0,24,30.21,10.0,ESE,9.2,-,N/A,,Scattered Clouds,120,2013-03-07 22:56:00
5:56 PM,59.0,30.9,35,30.20,10.0,ESE,8.1,-,N/A,,Scattered Clouds,110,2013-03-07 23:56:00
6:56 PM,55.0,32.0,42,30.20,10.0,East,3.5,-,N/A,,Scattered Clouds,100,2013-03-08 00:56:00
7:56 PM,53.1,34.0,48,30.21,10.0,Calm,Calm,-,N/A,,Scattered Clouds,0,2013-03-08 01:56:00
8:56 PM,50.0,35.1,57,30.22,10.0,Calm,Calm,-,N/A,,Scattered Clouds,0,2013-03-08 02:56:00
9:56 PM,50.0,35.1,57,30.24,10.0,SE,8.1,-,N/A,,Clear,140,2013-03-08 03:56:00
10:56 PM,48.9,34.0,56,30.23,10.0,ESE,4.6,-,N/A,,Scattered Clouds,120,2013-03-08 04:56:00
11:56 PM,48.0,33.1,56,30.22,10.0,SE,4.6,-,N/A,,Scattered Clouds,130,2013-03-08 05:56:00